Regional Weather Roundup
Issued by NWS Portland, ME

Current Version | Previous Version | Text Only | Print | Product List | Glossary Off
Versions: 1 2 3 4 5 6 7 8 9 10 11 12 13 14 15 16 17 18 19 20 21 22 23 24 25 26 27 28 29 30 31 32 33 34 35 36 37 38 39 40 41 42 43 44 45 46 47 48 49 50
000 ASUS41 KGYX 191510 RWRGYX WEATHER ROUNDUP FOR MAINE AND NEW HAMPSHIRE NATIONAL WEATHER SERVICE GRAY ME 1000 AM EST THU JAN 19 2017 MEZ002-005-006-010-012-015-018-020-021-024-026-027-029-191600- MAINE CITY SKY/WX TMP DP RH WIND PRES REMARKS PORTLAND CLOUDY 29 25 85 CALM 30.00S SANFORD MOSUNNY 34 29 82 CALM 29.99S BAR HARBOR MIX PCPN 31 28 89 CALM 29.98F WISCASSET CLOUDY 29 25 85 CALM 30.00S ROCKLAND MIX PCPN 31 30 96 CALM 29.98F FRYEBURG CLOUDY 28 24 85 CALM 29.97F LEWISTONAUBURN MOSUNNY 34 31 88 CALM 29.98S AUGUSTA CLOUDY 25 21 85 CALM 29.97F WATERVILLE CLOUDY 27 23 85 CALM 29.95S BANGOR LGT SNOW 25 23 92 CALM 29.98S FOG GREENVILLE N/A 25 24 96 CALM 29.86S MILLINOCKET CLOUDY 26 23 88 CALM 29.94S HOULTON LGT SNOW 25 22 88 SW7 29.91F FOG PRESQUE ISLE FLURRIES 22 18 85 SE7 29.90S FRENCHVILLE CLOUDY 20 17 88 S3 29.84S CARIBOU CLOUDY 22 18 85 S7 29.87F $$ NHZ002-005-008-009-011-012-014-191600- NEW HAMPSHIRE CITY SKY/WX TMP DP RH WIND PRES REMARKS PORTSMOUTH MOSUNNY 32 28 83 SW3 29.98S ROCHESTER PTSUNNY 33 28 81 CALM 29.97S NASHUA FOG 34 32 93 NW5 30.01R VSB 3/4 MANCHESTER CLOUDY 32 28 85 CALM 29.99R FOG CONCORD CLOUDY 31 28 89 VRB3 30.00R PLYMOUTH CLOUDY 33 30 88 CALM 29.97R BERLIN CLOUDY 30 25 81 CALM 29.93S WHITEFIELD CLOUDY 31 28 89 CALM 29.96R JAFFREY CLOUDY 33 31 92 S3 29.97R KEENE CLOUDY 36 34 92 CALM 30.00S LEBANON CLOUDY 33 30 88 CALM 29.99R MT WASHINGTON NOT AVBL $$ VTZ005-007-008-191600- VERMONT CITY SKY/WX TMP DP RH WIND PRES REMARKS ST JOHNSBURY N/A 32 29 88 MISG 29.97R MONTPELIER CLOUDY 34 32 92 CALM 29.99R BURLINGTON CLOUDY 37 35 92 CALM 30.01R $$ MAZ007-012-024-CTZ003-RIZ002-NYZ038-NYZ072-191600- SOUTHERN NEW ENGLAND AND NY CITY SKY/WX TMP DP RH WIND PRES REMARKS BOSTON PTSUNNY 38 35 89 CALM 30.01S WORCESTER SUNNY 35 31 85 W10 29.97R NANTUCKET MOSUNNY 41 39 93 N8 30.00S PROVIDENCE MOSUNNY 42 35 76 W8 30.01S HARTFORD PTSUNNY 40 36 86 CALM 30.02R ALBANY CLOUDY 40 35 83 SW5 30.05R NEW YORK CITY MOSUNNY 45 36 70 NW10 30.06R $$ ANZ081-ANZ082-ANZ150-NHZ014-MEZ023>029-191600- COASTAL MARINE OBSERVATIONS STATION/POSITION TIME TEMP WIND PRES WAVE AIR SEA DIR/SP/G HT/PER (UTC) (F) (DEG/KT/KT) (MB) (FT/S) MOUNT DESERT ROC 1500 38 1015.2F MATINICUS ROCK 1400 38 220/ 8/ 9 1014.6S ISLE OF SHOALS 1400 32 300/ 5/ 7 1015.6F CASHES LEDGE BUO 1450 41 46 220/ 6/ 8 1015.4F 7/ 8 GEORGES BANK BUO 1450 43 44 1012.7R 11/10 $$ .............KEY.............. WCI - WIND CHILL TC - TEMPERATURE IN CELSIUS VSB - VISIBILITY IN MILES HX - HEAT INDEX FAIR- INDICATES FEW OR NO CLOUDS BELOW 12,000 FT, WITH NO SIGNIFICANT WEATHER AND/OR OBSTRUCTIONS TO VISIBILITY.

USA.gov is the U.S. government's official web portal to all federal, state and local government web resources and services.